When you browse on this site, cookies collect data to enhance your experience and personalize the content and advertising you see.
Visit our Privacy Policy to learn more. By continuing to use the site, you agree to this use of cookies and data.
  • In Belgien
  • Länderverzeichnis
  • Für 7 Tage
  • Wassertemperatur
  • Wetterkarte
  • Widgets
  • user-avatar
    Anmelden

    Stündliche Wetter Udong

    Heute, 19 November, Dienstag

    Zeit Temperatur Niederschläge Wind Luftdruck Luftfeuchtigkeit
    00:00 +27°C° 0.4 mm 1 m/S 756 mmHg 83%
    01:00 +26°C° 0 mm 1 m/S 756 mmHg 86%
    02:00 +26°C° 0.5 mm 1 m/S 756 mmHg 87%
    03:00 +26°C° 0.5 mm 1 m/S 756 mmHg 87%
    04:00 +26°C° 0.5 mm 1 m/S 756 mmHg 88%
    05:00 +26°C° 0 mm 2 m/S 756 mmHg 88%
    06:00 +26°C° 0 mm 2 m/S 756 mmHg 89%
    07:00 +25°C° 0 mm 3 m/S 757 mmHg 89%
    08:00 +27°C° 0 mm 3 m/S 757 mmHg 81%
    09:00 +28°C° 0 mm 4 m/S 757 mmHg 74%
    10:00 +30°C° 0 mm 5 m/S 757 mmHg 66%
    11:00 +32°C° 0 mm 5 m/S 757 mmHg 63%
    12:00 +32°C° 0 mm 5 m/S 756 mmHg 59%
    13:00 +33°C° 0 mm 5 m/S 756 mmHg 56%
    14:00 +33°C° 0 mm 4 m/S 755 mmHg 58%
    15:00 +33°C° 0 mm 4 m/S 755 mmHg 61%
    16:00 +31°C° 0 mm 3 m/S 755 mmHg 63%
    17:00 +30°C° 0 mm 3 m/S 755 mmHg 65%
    18:00 +28°C° 0 mm 3 m/S 755 mmHg 67%
    19:00 +27°C° 0 mm 3 m/S 756 mmHg 68%
    20:00 +27°C° 0 mm 3 m/S 756 mmHg 68%
    21:00 +26°C° 0 mm 3 m/S 757 mmHg 68%
    22:00 +26°C° 0 mm 3 m/S 757 mmHg 68%
    23:00 +25°C° 0 mm 3 m/S 757 mmHg 70%

    Morgen, 20 November, Mittwoch

    Zeit Temperatur Niederschläge Wind Luftdruck Luftfeuchtigkeit
    00:00 +25°C° 0 mm 3 m/S 757 mmHg 71%
    01:00 +24°C° 0 mm 3 m/S 757 mmHg 72%
    02:00 +24°C° 0 mm 3 m/S 756 mmHg 73%
    03:00 +22°C° 0 mm 3 m/S 756 mmHg 73%
    04:00 +22°C° 0 mm 3 m/S 756 mmHg 73%
    05:00 +22°C° 0 mm 3 m/S 756 mmHg 75%
    06:00 +22°C° 0 mm 3 m/S 757 mmHg 77%
    07:00 +22°C° 0 mm 3 m/S 758 mmHg 79%
    08:00 +25°C° 0 mm 4 m/S 758 mmHg 74%
    09:00 +27°C° 0 mm 5 m/S 758 mmHg 70%
    10:00 +29°C° 0 mm 6 m/S 758 mmHg 65%
    11:00 +30°C° 0 mm 6 m/S 757 mmHg 63%
    12:00 +30°C° 0 mm 6 m/S 757 mmHg 61%
    13:00 +32°C° 0 mm 6 m/S 756 mmHg 58%
    14:00 +32°C° 0 mm 5 m/S 755 mmHg 60%
    15:00 +32°C° 0 mm 5 m/S 755 mmHg 62%
    16:00 +32°C° 0 mm 4 m/S 754 mmHg 64%
    17:00 +29°C° 0 mm 4 m/S 755 mmHg 68%
    18:00 +28°C° 0 mm 3 m/S 755 mmHg 72%
    19:00 +27°C° 0 mm 3 m/S 756 mmHg 75%
    20:00 +26°C° 0 mm 3 m/S 756 mmHg 76%
    21:00 +26°C° 0 mm 3 m/S 757 mmHg 76%
    22:00 +25°C° 0 mm 3 m/S 757 mmHg 76%
    23:00 +25°C° 0 mm 3 m/S 757 mmHg 77%

    übermorgen, 21 November, Donnerstag

    Zeit Temperatur Niederschläge Wind Luftdruck Luftfeuchtigkeit
    00:00 +25°C° 0 mm 3 m/S 757 mmHg 78%
    01:00 +24°C° 0 mm 3 m/S 756 mmHg 78%
    02:00 +24°C° 0 mm 3 m/S 756 mmHg 78%
    03:00 +22°C° 0 mm 3 m/S 756 mmHg 78%
    04:00 +22°C° 0 mm 3 m/S 756 mmHg 77%
    05:00 +22°C° 0 mm 3 m/S 756 mmHg 79%
    06:00 +22°C° 0 mm 3 m/S 757 mmHg 80%
    07:00 +22°C° 0 mm 3 m/S 757 mmHg 82%
    08:00 +25°C° 0 mm 4 m/S 757 mmHg 76%
    09:00 +27°C° 0 mm 5 m/S 758 mmHg 71%
    10:00 +29°C° 0 mm 6 m/S 758 mmHg 66%
    11:00 +30°C° 0 mm 6 m/S 757 mmHg 64%
    12:00 +32°C° 0 mm 6 m/S 756 mmHg 61%
    13:00 +33°C° 0 mm 6 m/S 756 mmHg 59%
    14:00 +32°C° 0 mm 5 m/S 755 mmHg 60%
    15:00 +32°C° 0 mm 5 m/S 755 mmHg 61%
    16:00 +32°C° 0 mm 5 m/S 754 mmHg 62%
    17:00 +30°C° 0 mm 4 m/S 755 mmHg 65%
    18:00 +29°C° 0 mm 3 m/S 755 mmHg 68%
    19:00 +27°C° 0 mm 3 m/S 756 mmHg 71%
    20:00 +27°C° 0 mm 3 m/S 756 mmHg 72%
    21:00 +26°C° 0 mm 3 m/S 757 mmHg 73%
    22:00 +26°C° 0 mm 3 m/S 757 mmHg 73%
    23:00 +26°C° 0 mm 3 m/S 757 mmHg 74%

    22 November, Freitag

    Zeit Temperatur Niederschläge Wind Luftdruck Luftfeuchtigkeit
    00:00 +25°C° 0 mm 3 m/S 756 mmHg 75%
    01:00 +25°C° 0 mm 3 m/S 756 mmHg 76%
    02:00 +25°C° 0 mm 3 m/S 756 mmHg 76%
    03:00 +25°C° 0 mm 3 m/S 756 mmHg 76%
    04:00 +24°C° 0 mm 3 m/S 756 mmHg 77%
    05:00 +25°C° 0 mm 4 m/S 756 mmHg 78%
    06:00 +25°C° 0 mm 4 m/S 757 mmHg 79%
    07:00 +25°C° 0 mm 4 m/S 757 mmHg 81%
    08:00 +26°C° 0 mm 4 m/S 757 mmHg 76%
    09:00 +28°C° 0 mm 5 m/S 757 mmHg 72%
    10:00 +30°C° 0 mm 6 m/S 757 mmHg 67%
    11:00 +32°C° 0 mm 5 m/S 756 mmHg 65%
    12:00 +33°C° 0 mm 5 m/S 756 mmHg 62%
    13:00 +34°C° 0 mm 5 m/S 755 mmHg 59%
    14:00 +33°C° 0 mm 5 m/S 755 mmHg 60%
    15:00 +33°C° 0 mm 4 m/S 754 mmHg 60%
    16:00 +33°C° 0 mm 4 m/S 754 mmHg 61%
    17:00 +31°C° 0 mm 3 m/S 754 mmHg 65%
    18:00 +29°C° 0 mm 3 m/S 755 mmHg 70%
    19:00 +28°C° 0 mm 2 m/S 755 mmHg 74%
    20:00 +27°C° 0 mm 2 m/S 756 mmHg 74%
    21:00 +27°C° 0 mm 2 m/S 756 mmHg 74%
    22:00 +27°C° 0 mm 2 m/S 757 mmHg 74%
    23:00 +27°C° 0.1 mm 2 m/S 756 mmHg 75%

    23 November, Samstag

    Zeit Temperatur Niederschläge Wind Luftdruck Luftfeuchtigkeit
    00:00 +26°C° 0.1 mm 2 m/S 756 mmHg 76%
    01:00 +26°C° 0.1 mm 2 m/S 756 mmHg 78%
    02:00 +26°C° 0 mm 2 m/S 756 mmHg 79%
    03:00 +26°C° 0 mm 2 m/S 755 mmHg 80%
    04:00 +26°C° 0 mm 3 m/S 755 mmHg 81%
    05:00 +26°C° 0 mm 3 m/S 756 mmHg 82%
    06:00 +26°C° 0 mm 3 m/S 756 mmHg 83%
    07:00 +26°C° 0 mm 3 m/S 757 mmHg 84%
    08:00 +28°C° 0 mm 4 m/S 757 mmHg 77%
    09:00 +29°C° 0 mm 5 m/S 757 mmHg 71%
    10:00 +32°C° 0 mm 5 m/S 758 mmHg 65%
    11:00 +33°C° 0 mm 5 m/S 757 mmHg 62%
    12:00 +33°C° 0 mm 5 m/S 756 mmHg 60%
    13:00 +34°C° 0 mm 5 m/S 755 mmHg 57%
    14:00 +34°C° 0 mm 5 m/S 755 mmHg 59%
    15:00 +34°C° 0 mm 4 m/S 755 mmHg 60%
    16:00 +33°C° 0 mm 4 m/S 754 mmHg 61%
    17:00 +31°C° 0.2 mm 3 m/S 755 mmHg 66%
    18:00 +30°C° 0.2 mm 3 m/S 755 mmHg 71%
    19:00 +28°C° 0.2 mm 2 m/S 756 mmHg 75%
    20:00 +28°C° 0.2 mm 2 m/S 756 mmHg 77%
    21:00 +28°C° 0.2 mm 1 m/S 756 mmHg 78%
    22:00 +27°C° 0.2 mm 1 m/S 757 mmHg 79%
    23:00 +27°C° 0.2 mm 1 m/S 756 mmHg 80%

    24 November, Sonntag

    Zeit Temperatur Niederschläge Wind Luftdruck Luftfeuchtigkeit
    00:00 +27°C° 0.2 mm 1 m/S 756 mmHg 81%
    01:00 +24°C° 0.2 mm 0 m/S 755 mmHg 82%
    02:00 +26°C° 0 mm 1 m/S 755 mmHg 83%
    03:00 +26°C° 0 mm 1 m/S 755 mmHg 85%
    04:00 +26°C° 0 mm 1 m/S 755 mmHg 86%
    05:00 +26°C° 0 mm 1 m/S 756 mmHg 86%
    06:00 +26°C° 0 mm 2 m/S 756 mmHg 86%
    07:00 +26°C° 0 mm 2 m/S 757 mmHg 85%
    08:00 +28°C° 0 mm 2 m/S 757 mmHg 79%
    09:00 +29°C° 0 mm 3 m/S 757 mmHg 72%
    10:00 +31°C° 0 mm 3 m/S 757 mmHg 65%
    11:00 +33°C° 0 mm 3 m/S 756 mmHg 62%
    12:00 +33°C° 0 mm 4 m/S 756 mmHg 59%
    13:00 +34°C° 0 mm 4 m/S 755 mmHg 55%
    14:00 +34°C° 0 mm 4 m/S 755 mmHg 56%
    15:00 +34°C° 0 mm 3 m/S 754 mmHg 56%
    16:00 +34°C° 0 mm 3 m/S 754 mmHg 56%
    17:00 +33°C° 0 mm 3 m/S 754 mmHg 61%
    18:00 +30°C° 0 mm 2 m/S 755 mmHg 65%
    19:00 +29°C° 0 mm 2 m/S 755 mmHg 70%
    20:00 +29°C° 0 mm 1 m/S 756 mmHg 72%
    21:00 +28°C° 0 mm 1 m/S 756 mmHg 74%
    22:00 +28°C° 0 mm 1 m/S 756 mmHg 76%
    23:00 +27°C° 0 mm 1 m/S 756 mmHg 77%
    Mehr zeigen